Location: Dumbr?vi?a
(45.8833°N, 22.7000°E)
Time: 08:02:35
(UTC+00:00)

ATLAS CENTAUR R/B - Pass Details

Date: 03 March 2021
Orbit: 475 x 670 km, 64.7° (Epoch: 30 March)

Event Time Altitude Azimuth Distance (km) Brightness Sun altitude
Rises 16:41:46 0° 178° (S) 2,524 4.7 -4.8°
Reaches altitude 10° 16:44:20 10° 160° (SSE) 1,640 3.6 -5.3°
Maximum altitude 16:46:56 19° 114° (ESE) 1,200 2.5 -5.7°
Drops below altitude 10° 16:49:33 10° 68° (ENE) 1,650 3.2 -6.2°
Enters shadow 16:50:49 - 57° (ENE) 2,063 3.7 -6.4°
